Tracking 27126 objects as of 30-Mar-2023
HD Live streaming from Space Station
objects crossing your sky now

STARLINK-3522

Track STARLINK-3522 now!
10-day predictions
STARLINK-3522 is classified as:


NORAD ID: 51725
Int'l Code: 2022-016M
Perigee: 546.0 km
Apogee: 547.7 km
Inclination: 53.2 °
Period: 95.4 minutes
Semi major axis: 6917 km
RCS: Unknown
Launch date: February 21, 2022
Source: United States (US)
Launch site: AIR FORCE EASTERN TEST RANGE (AFETR)
Your satellite tracking list
Your tracking list is empty




NASA's NSSDC Master Catalog

Two Line Element Set (TLE):
1 51725U 22016M   23089.11116654  .00003960  00000-0  26675-3 0  9995
2 51725  53.2159 117.5788 0001235 103.4519 256.6611 15.08837665 62170
Source of the keplerian elements: AFSPC